Regional Weather Roundup
Issued by NWS

Home | Current Version | Previous Version | Text Only | Print | Product List | Glossary On
Versions: 1 2 3 4 5 6 7 8 9 10 11 12 13 14 15 16 17 18 19 20 21 22 23 24 25 26 27 28 29 30 31 32 33 34 35 36 37 38 39 40 41 42 43 44 45 46 47 48 49 50
066
ASUS43 KMKX 241310
RWRWI

WISCONSIN REGIONAL WEATHER ROUNDUP
NATIONAL WEATHER SERVICE MILWAUKEE/SULLIVAN WI
800 AM CDT TUE APR 24 2018

NOTE: "FAIR" INDICATES FEW OR NO CLOUDS BELOW 12,000 FEET WITH NO
SIGNIFICANT WEATHER AND/OR OBSTRUCTIONS TO VISIBILITY.

WIZ001-002-006>008-014>016-023>028-241400-
NORTHWEST WISCONSIN

CITY           SKY/WX    TMP DP  RH WIND       PRES   REMARKS
SUPERIOR ARPT  FAIR      45  31  58 NE7       30.20R
ASHLAND        FAIR      43  32  65 NE12      30.20R
HAYWARD        FAIR      43  33  68 N3        30.16R
SIREN          FAIR      45  32  61 NE6       30.16R
CUMBERLAND     FAIR      37  32  81 CALM      30.13S
RICE LAKE      FAIR      40  35  80 N6        30.15S
CHETEK         FAIR      39  33  78 CALM      30.13S
LADYSMITH      FAIR      40  32  74 CALM      30.15S
EAU CLAIRE     FAIR      44  35  70 CALM      30.13R
MENOMONIE      FAIR      42  37  80 CALM      30.13S
NEW RICHMOND   FAIR      43  35  72 CALM      30.13S
OSCEOLA        FAIR      42  36  79 CALM      30.16S
$$

WIZ003>005-009-010-017-018-241400-
NORTH CENTRAL WISCONSIN

CITY           SKY/WX    TMP DP  RH WIND       PRES   REMARKS
MANITOWISH WTR FAIR      41  30  65 NE7       30.13S
ARBOR VITAE    FAIR      39  31  72 N5        30.12S
WOODRUFF       FAIR      39  31  72 N5        30.12S
RHINELANDER    FAIR      43  30  60 CALM      30.12S
EAGLE RIVER    FAIR      37  28  71 CALM      30.11S
LAND O LAKES   FAIR      42  29  58 N6        30.15R
PHILLIPS       FAIR      38  32  78 CALM      30.12S
TOMAHAWK       FAIR      38  28  68 CALM      30.13S
MEDFORD        FAIR      42  33  71 CALM      30.12R
MERRILL        FAIR      38  32  77 CALM      30.12S
$$

WIZ029-030-035-036-043>047-241400-
CENTRAL WISCONSIN

CITY           SKY/WX    TMP DP  RH WIND       PRES   REMARKS
WAUSAU         FAIR      45  31  58 CALM      30.10F
MOSINEE        MOSUNNY   45  30  57 N7        30.13S
MARSHFIELD     FAIR      49  34  56 NW6       30.10S
STEVENS POINT  FAIR      40  29  63 CALM      30.12F
WAUPACA        FAIR      44  33  63 CALM      30.12S
WAUTOMA        FAIR      43  35  73 CALM      30.12S
WISC RAPIDS    FAIR      45  28  51 CALM      30.13S
CAMP DOUGLAS   MOSUNNY   41  36  81 CALM      30.12
$$

WIZ011>013-019>022-031-037>040-048>050-241400-
NORTHEAST WISCONSIN

CITY           SKY/WX    TMP DP  RH WIND       PRES   REMARKS
ANTIGO         FAIR      39  31  70 CALM      30.12F
SHAWANO        FAIR      40  33  76 CALM      30.11S
OCONTO         FAIR      33  31  93 CALM      30.11S
STURGEON BAY   FAIR      50  29  44 NE3         N/A
GREEN BAY      FAIR      41  36  82 CALM      30.11S
MANITOWOC      FAIR      44  30  57 N6        30.11R
APPLETON       MOSUNNY   46  28  49 N6        30.09S
CLINTONVILLE   FAIR      40  28  62 CALM      30.11S
OSHKOSH        FAIR      49  37  63 NW3       30.10S
$$

WIZ032>034-041-042-053>061-241400-
SOUTHWEST WISCONSIN

CITY           SKY/WX    TMP DP  RH WIND       PRES   REMARKS
LA CROSSE      FAIR      47  37  68 CALM      30.13R
SPARTA         FAIR      38  32  77 CALM      30.13S
VIROQUA        FAIR      52  35  51 CALM      30.12R
BOSCOBEL       FAIR      42  35  76 CALM      30.14R
PRAIRIE DU CHI FAIR      42  34  72 CALM      30.13R
PLATTEVILLE    FAIR      49  37  61 CALM      30.12S
$$

WIZ056-057-062-063-064-067-068-241400-
SOUTH CENTRAL WISCONSIN

CITY           SKY/WX    TMP DP  RH WIND       PRES   REMARKS
REEDSBURG      FAIR      40  34  77 CALM      30.12S
BARABOO/DELLS  FAIR      41  33  73 CALM      30.12S
LONE ROCK      FAIR      40  35  83 CALM      30.13S
MINERAL POINT  FAIR      50  34  53 CALM      30.11S
MADISON        FAIR      48  35  60 NW6       30.11R
MIDDLETON      FAIR      50  38  61 NW5       30.12R
WATERTOWN      FAIR      48  32  53 CALM      30.09S
MONROE         FAIR      52  28  40 NW7       30.10R
JANESVILLE     PTSUNNY   52  30  43 N5        30.09S
$$

WIZ051-052-058>065-066-070>072-241400-
SOUTHEAST WISCONSIN

CITY           SKY/WX    TMP DP  RH WIND       PRES   REMARKS
MILWAUKEE      PTSUNNY   48  32  53 N8        30.10R
WAUKESHA       PTSUNNY   46  30  53 CALM      30.10S
MILWAUKEE/TIMM SUNNY     48  27  43 N5        30.09F
RACINE         CLOUDY    47  34  60 N5        30.10S
BURLINGTON     FAIR      50  30  46 N5        30.08S
KENOSHA        PTSUNNY   49  33  54 N3        30.08R
FOND DU LAC    FAIR      47  33  58 N5        30.11R
SHEBOYGAN      FAIR      47  32  56 N8        30.09S
WEST BEND      FAIR      48  30  49 N5        30.09S
JUNEAU         FAIR      46  32  59 N3        30.11S
$$

LSZ147-162-241400-
LAKE SUPERIOR

STATION/POSITION TIME  TEMP    WIND        PRES    WAVE
                       AIR SEA DIR/SP/G            HT/PER
                 (UTC) (F)     (DEG/KT/KT) (MB)    (FT/S)
DEVILS ISLAND    1300   40      60/ 11/ 11 1023.8R
SAXON HARBOR     1240   37     340/  2/  4 1021.7R
$$

LMZ867-665-643>646-241400-
LAKE MICHIGAN

STATION/POSITION TIME  TEMP    WIND        PRES    WAVE
                       AIR SEA DIR/SP/G            HT/PER
                 (UTC) (F)     (DEG/KT/KT) (MB)    (FT/S)
NORTHPORT PIER   1230   37                 1019.6R
KEWAUNEE LAKESHO 1248   46      20/  5/  6 1019.0R
SHEBOYGAN LAKESH 1300   41     340/ 12/ 13 1019.4R
PORT WASHINGTON  1240   45      CALM  /  2 1019.6F
MILWAUKEE LAKESH 1250   46      10/  8/ 10   N/A
KENOSHA   LAKESH 1300   42                 1019.0
$$

TC  - TEMPERATURE IN CELSIUS
VSB - VISIBILITY IN STATUTE MILES
WCI - WIND CHILL INDEX
HX  - HEAT INDEX





USA.gov is the U.S. government's official web portal to all federal, state and local government web resources and services.